This is the latest recevied weather packets stored in our database for station/object K6POO-1. If no packets are shown the sender has not sent any weather packets the latest 10 day(s).
| Time | Temp. | Humidity | Pressure | Rain* | Wind** | Luminosity | Snow |
|---|---|---|---|---|---|---|---|
| 1777916632 | 16.11° C | 68% | 1015.7 hPa | 0 mm | - | 413 W/m² | - |
| 1777916329 | 15.56° C | 67% | 1015.7 hPa | 0 mm | - | 494 W/m² | - |
| 1777916025 | 15.56° C | 69% | 1015.6 hPa | 0 mm | - | 461 W/m² | - |
| 1777915723 | 15.56° C | 68% | 1015.5 hPa | 0 mm | - | 440 W/m² | - |
| 1777915419 | 15.56° C | 68% | 1015.6 hPa | 0 mm | - | 316 W/m² | - |
| 1777915115 | 15.56° C | 67% | 1015.2 hPa | 0 mm | - | 377 W/m² | - |
| 1777914812 | 16.11° C | 67% | 1015.3 hPa | 0 mm | - | 461 W/m² | - |
| 1777914510 | 16.11° C | 67% | 1015.2 hPa | 0 mm | - | 678 W/m² | - |
| 1777914206 | 16.11° C | 68% | 1015.3 hPa | 0 mm | - | 813 W/m² | - |
| 1777913903 | 15.56° C | 69% | 1015.1 hPa | 0 mm | - | 281 W/m² | - |
| 1777913599 | 15.56° C | 68% | 1015.2 hPa | 0 mm | - | 204 W/m² | - |
| 1777913296 | 15° C | 70% | 1015.3 hPa | 0 mm | - | 106 W/m² | - |
| 1777912993 | 15° C | 71% | 1015.4 hPa | 0 mm | - | 131 W/m² | - |
| 1777912689 | 15° C | 72% | 1015.5 hPa | 0 mm | - | 160 W/m² | - |
| 1777912385 | 15° C | 72% | 1015.4 hPa | 0 mm | - | 224 W/m² | - |
| 1777912081 | 15° C | 74% | 1015.5 hPa | 0 mm | - | 248 W/m² | - |
| 1777911777 | 14.44° C | 74% | 1015.5 hPa | 0 mm | - | 229 W/m² | - |
| 1777911474 | 14.44° C | 74% | 1015.3 hPa | 0 mm | - | 204 W/m² | - |
| 1777911171 | 14.44° C | 75% | 1015.4 hPa | 0 mm | - | 157 W/m² | - |
| 1777910869 | 14.44° C | 76% | 1015.2 hPa | 0 mm | - | 139 W/m² | - |
| 1777910564 | 15° C | 75% | 1015.4 hPa | 0 mm | - | 123 W/m² | - |
| 1777910262 | 15° C | 74% | 1015.5 hPa | 0 mm | - | 158 W/m² | - |
| 1777909959 | 15° C | 75% | 1015.3 hPa | 0 mm | - | 175 W/m² | - |
| 1777909656 | 15° C | 75% | 1015.3 hPa | 0 mm | - | 160 W/m² | - |
| 1777909353 | 14.44° C | 76% | 1015.3 hPa | 0 mm | - | 205 W/m² | - |
* Rain latest hour (hover to see other rain measurements)
** Current wind speed in m/s (hover to see current wind gust speed)